Flag for U.S.A. Weather past 2 weeks in Hampton, Virginia, U.S.A.

Now
51 °F

Clear.


Feels Like: 49 °F
Forecast: 49 / 58 °F
Wind: 6 mph from Southeast

Location: Langley Air Force Base

Current Time: Apr 25, 2015 at 12:54:53 AM

Latest Report: Apr 24, 2015 at 11:58 PM


Visibility: 10 mi

Pressure: 29.98 "Hg

Humidity: 64%

Dew point: 40 °F

Location of HamptonLocation

Historic Weather in Hampton — Graph

°F

Hampton temperature yesterday

Maximum temperature yesterday: 62 °F (at 4:58 PM)
Minimum temperature yesterday: 43 °F (at 6:58 AM)
Average temperature yesterday: 53 °F

Past Weeks' High & Low Weather Summary

 TemperatureHumidityPressure
High82 °F (Apr 10, 2:58 PM)100% (Apr 9, 10:03 PM)30.41 "Hg (Apr 9, 10:03 PM)
Low43 °F (Apr 24, 6:58 AM)22% (Apr 24, 5:58 PM)29.62 "Hg (Apr 20, 10:58 PM)
Average61 °F70%30.04 "Hg
* Reported Apr 9 10:03 PM — Apr 24 10:58 PM, Hampton, Weather by CustomWeather, © 2015

Note: Actual official high and low records may vary slightly from our data, if they occured in-between our weather recording intervals... More about our weather records

Advertising

Hampton weather history for previous 24 hours

 ConditionsComfort  
Time TempWeatherWind HumidityBarometerVisibility
10:58 PM
Fri, Apr 24
52 °FClear.6 mph66%29.98 "Hg10 mi
9:58 PM50 °FClear.8 mph63%29.97 "Hg10 mi
8:58 PM53 °FClear.8 mph42%29.96 "Hg10 mi
6:58 PM61 °FSunny.7 mph24%29.93 "Hg10 mi
5:58 PM62 °FSunny.14 mph22%29.93 "Hg10 mi
4:58 PM62 °FSunny.16 mph23%29.94 "Hg10 mi
3:58 PM62 °FSunny.15 mph26%29.94 "Hg10 mi
2:58 PM59 °FSunny.15 mph29%29.97 "Hg9 mi
1:58 PM58 °FSunny.16 mph34%29.99 "Hg10 mi
12:58 PM56 °FPassing clouds.13 mph37%30.01 "Hg10 mi
11:58 AM54 °FSunny.10 mph40%30.03 "Hg10 mi
10:58 AM52 °FSunny.13 mph44%30.04 "Hg10 mi
9:58 AM51 °FSunny.9 mph48%30.02 "Hg10 mi
8:58 AM49 °FSunny.13 mph51%30.03 "Hg10 mi
7:58 AM47 °FSunny.14 mph59%30.04 "Hg10 mi
6:58 AM43 °FClear.7 mph73%30.02 "Hg10 mi
5:58 AM45 °FClear.5 mph64%29.99 "Hg10 mi
4:58 AM46 °FClear.9 mph58%29.98 "Hg10 mi
3:58 AM48 °FClear.8 mph60%29.97 "Hg10 mi
2:58 AM50 °FClear.8 mph60%29.96 "Hg10 mi
1:58 AM51 °FClear.17 mph58%29.94 "Hg10 mi
12:58 AM52 °FClear.14 mph55%29.93 "Hg10 mi
Weather by CustomWeather, © 2015

See weather overviewHow to use our weather pages